Wind_Speed
4 4 5 6 6 7 7 7 9 10 9 8 10 10 10 9 10 10 11 12 12 12 13 13 12 11 10 10 9 9 9 8 8 8 7 7 8 8 9 9 10 10 11 10
4 4 5 5 6 6 7 8 8 8 7 8 8 10 10 9 10 10 11 12 12 12 12 11 10 10 9 9 8 8 7 7 7 7 7 7 8 7 8 8 9 9 10 11
5 5 5 6 6 7 8 8 9 8 8 9 8 9 10 9 10 10 11 12 12 12 11 10 10 9 9 8 8 7 7 7 7 7 7 8 8 8 8 8 9 10 10 11
6 6 6 7 7 8 9 9 9 9 9 9 9 9 9 9 10 10 11 12 11 10 10 10 10 10 8 8 8 8 7 7 7 7 8 8 8 8 8 8 9 10 11 12
6 6 7 8 8 9 10 10 9 8 7 8 8 8 8 9 9 10 11 11 11 10 10 10 10 10 9 8 8 7 6 6 6 7 7 7 8 8 9 9 10 11 11 13
9 9 9 10 10 11 11 10 10 9 8 8 9 9 9 9 10 11 11 11 10 10 10 10 10 10 9 8 7 6 6 6 6 7 7 7 8 9 9 10 11 12 12 13
11 11 11 12 11 11 11 10 9 9 9 9 9 10 10 10 11 11 11 11 9 10 10 10 10 9 8 7 6 6 6 7 7 7 8 8 9 9 10 10 11 12 13 15
12 12 13 13 13 12 12 10 9 10 10 10 10 10 11 11 11 11 11 10 9 9 9 9 9 8 7 6 6 6 7 7 8 8 8 9 9 10 11 11 12 13 14 15
14 14 14 14 13 13 12 12 11 11 11 11 11 11 10 10 10 10 10 10 9 8 8 8 8 7 7 7 6 7 8 8 9 9 9 10 10 11 11 12 13 14 15 16
15 15 15 14 13 13 12 12 12 12 12 11 11 10 9 9 9 10 10 9 8 8 8 8 8 7 7 7 7 8 8 9 10 10 10 10 11 11 12 13 14 15 16 17
15 15 15 14 15 13 12 12 12 12 12 12 10 10 10 10 10 10 10 9 9 8 8 8 8 7 7 7 8 8 9 10 10 11 11 11 11 11 12 13 15 16 17 18
16 16 15 15 15 14 14 13 13 12 12 12 11 11 11 11 11 11 10 10 9 8 8 8 8 8 8 8 9 9 9 10 10 11 11 12 12 12 13 15 16 17 17 18
16 15 15 16 15 15 14 14 14 14 13 12 11 11 11 11 11 11 10 10 9 9 9 9 9 9 9 9 9 10 10 11 11 11 12 13 13 14 15 16 17 17 18 18
16 16 16 16 16 16 15 15 15 15 14 13 12 12 12 12 12 11 11 10 10 10 10 10 10 10 9 9 10 10 11 11 12 12 13 13 14 15 16 16 17 18 18 18
17 16 16 16 16 15 14 15 15 15 14 14 13 13 12 12 12 11 11 11 10 10 10 10 10 10 10 9 10 11 12 12 12 13 14 14 15 16 17 17 18 18 18 18
18 17 16 16 15 15 16 16 16 16 15 14 13 13 13 13 12 12 11 10 10 11 11 10 10 10 10 10 10 11 12 13 13 14 15 15 16 16 17 18 18 19 19 19
19 18 17 17 17 17 16 16 17 16 15 15 15 14 14 13 13 13 12 12 11 11 11 11 11 11 11 11 12 12 13 14 14 15 16 16 16 17 17 18 18 19 20 20
21 20 19 18 17 16 16 17 17 17 16 15 15 15 15 14 14 14 13 13 12 12 12 12 11 12 12 13 13 14 14 14 15 16 16 17 17 18 18 18 19 20 20 20
23 22 21 19 18 18 18 18 18 18 17 17 16 16 16 15 15 15 14 14 14 14 13 12 12 13 13 14 14 14 15 15 15 16 17 17 18 18 18 19 20 20 21 20
23 23 22 21 20 20 19 19 19 19 18 18 17 17 16 16 16 16 15 15 15 14 14 13 13 13 14 15 15 15 16 16 16 16 16 17 18 19 19 19 20 21 20 20
23 23 23 22 21 20 20 20 20 20 19 18 18 17 17 17 17 17 17 16 16 15 15 14 14 15 15 15 15 16 16 16 17 17 17 18 19 19 20 20 20 21 21 20
25 24 24 24 23 22 22 22 22 21 20 20 20 19 19 19 19 18 18 17 17 16 16 16 16 16 16 16 16 17 17 17 18 18 18 18 19 20 20 20 20 20 20 21
25 25 25 25 24 24 24 23 23 22 22 22 22 21 21 21 20 20 19 19 18 17 17 17 17 17 17 17 17 18 18 18 18 18 19 19 19 20 20 20 20 20 20 20
26 26 26 25 25 25 25 24 24 23 23 23 23 22 22 22 21 21 20 20 19 19 19 18 18 18 18 18 18 18 18 18 18 19 19 20 20 20 20 20 21 21 21 20
29 28 28 27 27 27 27 26 25 24 24 23 23 23 23 22 22 21 21 21 21 21 20 20 20 19 18 19 19 19 19 19 19 20 20 20 20 20 21 21 20 21 20 20
29 30 30 29 28 28 27 27 26 25 25 24 24 23 23 23 22 22 22 22 21 21 20 20 19 19 19 20 20 20 20 20 20 21 21 21 21 21 21 21 21 21 20 20
29 29 29 29 29 29 28 28 27 26 25 25 25 24 24 24 23 22 21 21 21 20 19 19 20 19 19 20 20 20 20 20 20 21 21 22 22 21 21 21 20 20 20 20
Wind_Direction
330 339 339 343 333 323 313 304 300 304 306 312 314 315 313 316 317 320 325 328 329 328 327 327 326 322 318 318 317 316 317 318 320 323 320 315 312 308 302 302 304 304 306 308
328 335 327 326 325 320 320 318 310 312 322 324 320 317 320 319 315 319 325 328 332 332 331 332 331 330 327 325 327 326 323 320 318 321 326 324 319 316 313 311 310 311 313 315
323 314 322 322 321 318 321 327 324 318 321 325 326 320 323 321 321 323 327 329 331 331 336 339 337 336 336 335 332 332 330 328 326 324 327 330 332 328 326 325 323 323 321 318
312 315 321 324 317 311 316 317 319 318 317 320 317 319 325 328 326 329 332 330 330 332 336 337 337 338 337 336 337 337 335 330 331 331 331 331 332 331 330 332 332 330 326 324
295 296 300 306 312 309 309 311 316 319 323 318 312 317 324 327 330 330 331 332 333 335 336 335 336 333 336 336 337 338 339 338 336 336 336 337 339 339 340 339 337 336 332 332
286 285 290 296 302 302 304 306 311 319 324 318 318 318 322 325 325 326 330 332 333 339 342 342 339 337 337 339 339 346 345 343 340 340 343 345 344 342 342 341 339 337 334 333
285 285 284 292 302 300 295 302 308 315 315 313 319 318 320 325 325 326 327 329 331 336 341 344 344 342 341 343 347 352 353 349 346 345 345 344 343 341 338 337 337 337 336 333
282 283 284 290 295 297 297 297 296 303 305 307 309 310 316 322 324 326 328 329 330 335 341 344 345 347 352 355 356 357 352 353 353 348 344 341 339 338 339 338 337 336 335 333
278 281 286 288 291 295 292 287 289 294 297 301 304 306 313 319 322 323 327 329 332 336 339 341 343 347 352 355 355 351 347 345 344 342 339 338 337 337 338 337 336 336 335 335
277 278 283 286 288 288 290 288 288 290 292 295 297 301 307 313 316 319 323 325 327 330 332 335 337 341 341 343 343 348 347 344 342 341 341 338 334 335 337 336 335 334 333 337
275 276 279 281 284 285 286 287 286 289 291 291 293 296 301 306 311 314 316 316 319 323 325 326 328 331 335 335 338 337 338 339 338 337 335 335 332 332 333 333 334 334 334 336
273 274 277 278 279 279 280 282 286 290 294 293 288 290 295 301 305 309 309 307 308 309 315 320 322 325 324 324 326 329 330 332 332 331 331 333 335 334 333 333 333 333 334 334
271 274 277 276 277 278 279 281 283 286 291 292 286 286 291 297 301 302 301 302 304 303 305 309 313 318 318 319 324 327 330 332 334 334 334 333 333 332 331 331 332 333 333 333
267 269 273 272 272 275 275 277 279 281 284 286 284 287 290 293 296 296 296 300 301 301 303 304 304 305 307 312 317 320 324 326 328 329 331 331 331 332 332 332 330 331 332 333
266 266 271 270 270 273 273 276 278 279 282 284 284 285 289 292 295 294 293 297 297 299 301 301 301 301 303 306 307 312 316 319 321 325 326 328 329 331 332 330 328 329 331 332
264 265 270 269 269 270 272 275 277 278 278 280 280 281 284 287 291 293 292 295 297 298 298 299 300 301 303 305 308 310 313 317 320 321 324 326 328 330 332 331 330 330 330 330
261 262 265 266 268 268 270 272 274 275 276 276 277 277 279 283 286 289 290 291 295 297 297 297 299 299 298 301 305 308 312 316 319 321 322 324 325 327 329 330 331 331 331 332
257 259 261 262 266 268 269 270 272 273 274 274 274 273 274 277 281 283 285 287 291 294 293 292 292 294 296 298 301 304 307 309 314 318 320 321 323 325 328 329 329 330 331 331
257 258 259 261 262 263 264 266 268 271 272 272 271 270 270 273 277 280 280 283 286 288 289 288 288 291 294 298 301 303 305 306 310 314 317 320 320 322 324 327 328 330 331 332
256 256 257 260 260 261 263 264 266 269 270 270 269 269 269 270 273 276 278 280 284 286 285 285 286 290 294 299 299 299 301 304 308 311 314 318 319 320 322 324 326 327 328 330
256 255 255 258 260 260 262 264 266 268 268 267 268 268 268 269 271 274 277 281 282 283 282 282 285 289 293 295 295 298 300 302 306 308 310 313 315 317 320 323 324 325 326 328
255 256 257 257 258 260 262 264 266 267 265 265 265 266 268 269 271 273 276 279 280 281 281 281 284 287 290 292 294 297 299 303 305 307 309 310 310 313 316 318 321 323 324 326
254 255 256 256 257 259 260 262 263 264 263 264 265 267 269 269 270 271 274 275 275 277 278 279 282 286 288 290 293 296 299 301 303 306 308 309 309 310 313 315 317 320 321 323
253 253 254 256 256 257 258 260 262 264 264 264 264 266 268 269 269 269 270 272 273 275 275 275 278 282 284 286 289 293 296 299 302 304 306 307 307 309 312 315 317 320 321 321
253 253 254 255 256 257 258 259 260 261 262 263 263 264 266 267 268 268 270 270 272 274 275 275 277 280 282 284 288 291 294 297 300 302 304 304 305 306 309 311 314 318 319 318
252 253 254 254 255 256 256 257 258 259 260 261 261 262 264 265 266 268 270 271 273 275 276 276 277 279 282 284 287 290 293 296 297 299 301 302 302 303 305 307 309 313 316 317
252 252 252 253 254 254 254 254 256 257 258 258 258 259 261 263 265 267 270 270 270 274 275 274 275 277 280 282 286 290 293 296 297 298 299 300 300 300 302 304 305 308 311 313
Height
5815 5814 5814 5813 5812 5810 5809 5808 5807 5805 5804 5803 5803 5802 5801 5799 5798 5796 5794 5792 5790 5788 5785 5783 5781 5779 5777 5776 5774 5773 5772 5771 5769 5768 5767 5766 5766 5765 5765 5765 5764 5763 5762 5761
5815 5814 5813 5812 5810 5809 5808 5807 5805 5804 5803 5803 5802 5800 5799 5798 5796 5795 5793 5791 5789 5786 5784 5782 5780 5778 5776 5774 5772 5771 5770 5769 5768 5768 5767 5766 5765 5764 5764 5763 5763 5762 5761 5759
5814 5813 5812 5811 5810 5809 5807 5806 5805 5803 5803 5801 5800 5799 5798 5796 5795 5794 5792 5790 5787 5785 5783 5781 5779 5777 5775 5773 5772 5770 5769 5768 5768 5767 5766 5765 5764 5764 5763 5762 5761 5760 5759 5757
5813 5812 5811 5812 5809 5808 5807 5806 5804 5803 5801 5800 5800 5798 5797 5795 5794 5792 5791 5789 5786 5784 5782 5780 5778 5776 5774 5773 5771 5769 5768 5768 5767 5766 5766 5765 5764 5763 5762 5761 5760 5759 5757 5755
5812 5811 5810 5810 5808 5807 5806 5805 5803 5802 5801 5799 5798 5797 5796 5794 5793 5791 5789 5787 5785 5783 5781 5779 5777 5775 5774 5772 5770 5769 5768 5767 5767 5766 5765 5764 5763 5762 5761 5760 5759 5757 5755 5753
5810 5809 5809 5809 5807 5806 5805 5803 5802 5800 5799 5798 5797 5797 5796 5794 5792 5790 5788 5786 5785 5783 5781 5779 5777 5775 5773 5772 5770 5769 5768 5768 5767 5766 5765 5764 5763 5762 5760 5759 5757 5755 5753 5751
5808 5807 5806 5806 5805 5805 5804 5803 5800 5799 5798 5797 5796 5795 5794 5792 5791 5789 5787 5785 5784 5782 5780 5778 5776 5774 5773 5772 5770 5770 5769 5768 5767 5766 5765 5764 5762 5761 5759 5758 5756 5754 5752 5749
5805 5805 5806 5804 5803 5803 5801 5799 5798 5798 5797 5796 5794 5793 5792 5791 5789 5788 5786 5785 5783 5781 5780 5778 5776 5774 5773 5772 5771 5770 5769 5768 5767 5766 5765 5763 5762 5760 5759 5757 5755 5752 5750 5747
5803 5804 5803 5801 5800 5800 5798 5798 5797 5796 5795 5794 5793 5792 5791 5789 5788 5786 5785 5783 5782 5781 5779 5778 5776 5775 5774 5772 5771 5770 5769 5768 5767 5765 5764 5763 5761 5759 5757 5755 5753 5750 5748 5744
5800 5799 5799 5798 5797 5796 5796 5795 5795 5794 5793 5792 5791 5790 5789 5787 5786 5785 5784 5782 5781 5780 5779 5778 5776 5775 5774 5773 5772 5771 5769 5768 5766 5765 5763 5762 5760 5758 5756 5754 5751 5748 5745 5742
5796 5796 5796 5795 5794 5794 5793 5793 5792 5791 5791 5790 5789 5788 5787 5786 5785 5783 5782 5781 5780 5779 5778 5777 5775 5775 5773 5772 5771 5770 5769 5767 5765 5764 5762 5760 5758 5756 5754 5752 5749 5746 5743 5739
5792 5792 5792 5792 5791 5791 5791 5790 5790 5789 5788 5787 5786 5786 5785 5784 5783 5782 5781 5780 5779 5778 5777 5776 5774 5774 5773 5772 5771 5769 5768 5766 5764 5762 5760 5759 5757 5754 5752 5750 5747 5744 5740 5737
5788 5787 5787 5787 5787 5787 5787 5787 5786 5786 5785 5784 5784 5783 5782 5782 5781 5780 5779 5778 5777 5776 5775 5774 5773 5772 5771 5770 5769 5768 5766 5764 5763 5761 5759 5757 5754 5752 5750 5748 5744 5741 5738 5734
5783 5783 5784 5783 5783 5783 5783 5783 5783 5783 5782 5782 5781 5781 5780 5779 5778 5777 5777 5776 5775 5774 5773 5772 5771 5771 5770 5769 5767 5766 5764 5763 5761 5759 5757 5755 5752 5750 5747 5745 5742 5738 5735 5731
5778 5779 5779 5779 5779 5779 5779 5779 5779 5779 5779 5778 5778 5778 5777 5776 5775 5775 5774 5773 5772 5772 5771 5770 5769 5768 5767 5767 5765 5764 5763 5761 5759 5757 5755 5752 5750 5747 5744 5742 5738 5735 5732 5729
5773 5774 5774 5774 5774 5775 5775 5775 5775 5775 5775 5775 5774 5774 5774 5773 5772 5772 5771 5770 5770 5769 5768 5767 5766 5765 5765 5764 5763 5762 5760 5758 5756 5754 5752 5750 5747 5744 5742 5738 5735 5732 5729 5725
5768 5768 5769 5769 5770 5770 5770 5770 5770 5771 5770 5770 5770 5770 5770 5770 5769 5769 5768 5767 5766 5766 5765 5764 5763 5762 5762 5761 5760 5759 5757 5756 5754 5751 5749 5747 5744 5742 5739 5736 5732 5729 5725 5722
5762 5763 5764 5764 5764 5764 5765 5765 5765 5766 5766 5766 5766 5766 5766 5766 5765 5765 5764 5764 5763 5762 5761 5760 5760 5759 5758 5757 5756 5755 5754 5752 5750 5748 5746 5744 5741 5738 5735 5732 5729 5725 5722 5718
5755 5756 5757 5758 5758 5759 5760 5760 5760 5761 5761 5761 5761 5761 5761 5761 5761 5761 5760 5760 5759 5759 5758 5757 5756 5755 5755 5754 5753 5751 5750 5749 5747 5745 5743 5740 5738 5735 5732 5729 5725 5722 5718 5715
5748 5749 5750 5751 5752 5753 5754 5754 5755 5755 5755 5756 5756 5756 5756 5756 5756 5756 5756 5756 5755 5754 5754 5753 5752 5752 5751 5750 5749 5747 5746 5745 5743 5741 5739 5736 5734 5731 5728 5725 5722 5718 5715 5711
5741 5742 5744 5745 5746 5747 5748 5748 5749 5749 5750 5750 5751 5751 5751 5751 5751 5751 5751 5751 5751 5750 5749 5749 5748 5748 5747 5746 5744 5743 5742 5740 5738 5737 5735 5732 5730 5727 5724 5721 5718 5714 5711 5707
5734 5735 5737 5738 5739 5740 5741 5742 5743 5743 5744 5745 5745 5745 5746 5746 5746 5746 5746 5746 5746 5745 5744 5744 5744 5743 5742 5741 5740 5738 5737 5735 5733 5732 5730 5727 5725 5722 5720 5717 5714 5710 5707 5704
5726 5727 5729 5730 5732 5733 5734 5735 5736 5737 5737 5738 5739 5739 5740 5740 5740 5740 5741 5741 5740 5740 5739 5739 5738 5738 5737 5736 5734 5733 5732 5730 5728 5726 5724 5722 5720 5718 5715 5713 5710 5706 5703 5700
5718 5720 5721 5722 5724 5726 5727 5728 5729 5730 5730 5731 5732 5732 5733 5733 5734 5734 5734 5734 5734 5734 5733 5733 5732 5732 5731 5730 5729 5727 5726 5724 5723 5721 5719 5717 5715 5713 5710 5708 5705 5702 5699 5696
5710 5712 5714 5715 5716 5718 5719 5720 5721 5722 5723 5724 5725 5725 5726 5726 5727 5727 5727 5727 5727 5727 5727 5727 5726 5725 5725 5724 5722 5721 5720 5719 5717 5715 5713 5712 5709 5707 5705 5703 5700 5697 5694 5692
5701 5703 5705 5707 5708 5710 5711 5712 5714 5715 5715 5716 5717 5718 5719 5719 5720 5720 5720 5720 5720 5720 5720 5720 5720 5719 5718 5717 5716 5715 5714 5713 5711 5709 5708 5706 5704 5702 5700 5697 5695 5692 5690 5688
5692 5693 5696 5698 5699 5701 5703 5704 5705 5707 5708 5709 5710 5711 5711 5712 5712 5713 5713 5713 5713 5713 5713 5713 5713 5712 5712 5711 5710 5709 5708 5707 5705 5703 5701 5699 5698 5696 5694 5692 5689 5688 5685 5683